Regional Weather Roundup
Issued by NWS Upton, NY

Current Version | Previous Version | Graphics & Text | Print | Product List | Glossary Off
Versions: 1 2 3 4 5 6 7 8 9 10 11 12 13 14 15 16 17 18 19 20 21 22 23 24 25 26 27 28 29 30 31 32 33 34 35 36 37 38 39 40 41 42 43 44 45 46 47 48 49 50

000
ASUS41 KOKX 290308
RWROKX

REGIONAL WEATHER ROUNDUP
NATIONAL WEATHER SERVICE NEW YORK NY
1100 PM EDT TUE MAR 28 2017

NOTE: "FAIR" INDICATES FEW OR NO CLOUDS BELOW 12,000 FEET WITH NO
SIGNIFICANT WEATHER AND/OR OBSTRUCTIONS TO VISIBILITY.

NYZ071-072-176-178-NJZ106-104-290400-
NEW YORK CITY METRO AREA

CITY           SKY/WX    TMP DP  RH WIND       PRES   REMARKS
Central Park   CLOUDY    44  43  96 VRB5      29.95S
Wall St Helipt CLOUDY    43  43 100 NE3       29.94S
LaGuardia APRT LGT RAIN  43  40  89 NE8       29.93F FOG
Kennedy INTL   LGT RAIN  44  42  93 N6        29.94S
Breezy Point     N/A     41 N/A N/A NE7         N/A
Newark/Liberty LGT RAIN  43  43 100 N7        29.93F
Teterboro      DRIZZLE   45  43  93 N3        29.92F
$$

NYZ177-179-078>081-290400-
LONG ISLAND NEW YORK

CITY           SKY/WX    TMP DP  RH WIND       PRES   REMARKS
Jones Beach      N/A     43 N/A N/A NE8         N/A
Matinecock PT    N/A     37 N/A N/A E5          N/A  WCI  34
Farmingdale    LGT RAIN  43  42  97 N7        29.92F
MacArthur/ISP  LGT RAIN  42  42 100 N7        29.92S
Shirley        LGT RAIN  42  42 100 VRB5      29.93S FOG
Westhampton    RAIN      41  39  93 NE12      29.94R FOG
East Hampton   DRIZZLE   40  39  95 NE7       29.92F
Montauk          N/A     41  40  96 N8        29.93R
$$

NYZ052-065-067-290400-
HUDSON VALLEY

CITY           SKY/WX    TMP DP  RH WIND       PRES   REMARKS
White Plains   CLOUDY    44  41  89 NE6       29.91F FOG
Newburgh       CLOUDY    43  43 100 CALM      29.94F FOG
Montgomery     CLOUDY    43  42  97 CALM      29.93R FOG
Poughkeepsie   LGT RAIN  42  42 100 CALM      29.94S VSB 1
Albany         LGT RAIN  41  37  86 N9        30.01R FOG
$$

NJZ001-105-106-008-010-013-015-019>022-104-290400-
NEW JERSEY

CITY           SKY/WX    TMP DP  RH WIND       PRES   REMARKS
Newark/Liberty LGT RAIN  43  43 100 N7        29.93F
Teterboro      DRIZZLE   45  43  93 N3        29.92F
Caldwell       CLOUDY    44  43  96 CALM      29.94S FOG
Somerville     CLOUDY    46  45  96 CALM      29.92S
Linden         CLOUDY    44  42  93 CALM      29.94S
Sussex         CLOUDY    45  45 100 CALM      29.94R
Andover          N/A     44  43  96 CALM      29.94R
Trenton        CLOUDY    46  45  96 CALM      29.94R
Millville      CLOUDY    49  49 100 NW8       29.93R
Atlantic City  CLOUDY    47  44  90 N9        29.91S
Wrightstown    CLOUDY    45  44  96 N8        29.91R
Toms River     LGT RAIN  44  44 100 N7        29.92F
Belmar         LGT RAIN  42  41  96 N9        29.93S
$$

PAZ047>061-062-071-290400-
EASTERN PENNSYLVANIA

CITY           SKY/WX    TMP DP  RH WIND       PRES   REMARKS
Philadelphia   CLOUDY    49  46  90 N8        29.94R
Allentown      CLOUDY    48  46  93 SW5       29.94S
Scranton       CLOUDY    48  46  93 N14       29.99R
$$

CTZ002-004>006-009-010-012-RIZ004-006-007-MAZ004-011-015-290400-
SOUTHERN NEW ENGLAND
 IN CT

CITY           SKY/WX    TMP DP  RH WIND       PRES   REMARKS
Bradley INTL   LGT RAIN  41  40  96 N8        29.95S FOG
Hartford       LGT RAIN  42  41  96 N6        29.95S FOG
Danbury        LGT RAIN  42  41  96 CALM      29.94S
Wtrbury/Oxford CLOUDY    41  37  87 N7        29.93F
Bridgeport     LGT RAIN  44  43  96 CALM      29.94S FOG
Meriden        LGT RAIN  44  41  89 N6        29.94S
New Haven      LGT RAIN  43  42  97 N5        29.93S
Chester        NOT AVBL
Groton         RAIN      43  41  93 N6        29.93R FOG
Wilimantic     LGT RAIN  42  40  92 N7        29.95S

 IN RI

CITY           SKY/WX    TMP DP  RH WIND       PRES   REMARKS
Providence     LGT RAIN  40  37  89 N10       29.94F WCI  33
Block Island   LGT RAIN  40  39  97 NE14      29.92R WCI  32
Westerly       LGT RAIN  42  41  96 N6        29.94R FOG
 IN MA

CITY           SKY/WX    TMP DP  RH WIND       PRES   REMARKS
Boston         RAIN      39  39 100 N6        29.98R FOG     WCI  35
Worcester      RAIN      35  33  92 NE6       29.94S FOG     WCI  30
Westfield      LGT RAIN  40  40 100 NE5       29.95S
Provincetown   LGT RAIN  40  39  97 NE5         N/A
Nantucket      LGT RAIN  41  40  96 E10       29.88F
$$

ANZ330-335-338-340-345-350-353-355-290400-
COASTAL MARINE OBSERVATIONS


STATION/POSITION TIME  SKY/WX   TEMP    WIND        PRES    VSBY  WAVE
                                AIR SEA DIR/SP/G                  HT/PER
                 (UTC)          (F)     (DEG/KT/KT) (MB)    (MI)  (FT/S)
NY HARB ENTRANCE 0150            42 42  350/ 10/ 12 1013.2          4/10
20 S FIRE ISLAND 0250            41 41   10/ 12/ 14 1012.5          5/ 5
GREAT SOUTH BAY  NOT AVBL
23 SSW MONTAUK P 0150            41 42              1012.0          5/ 5
15 E BARNEGAT LI 0230               44                N/A           5/ 7
HUDSON CANYON    0150            46 44  310/  4/  6 1011.2          4/10
KINGS POINT      0242            41 39              1013.4
EXECUTION ROCKS  NOT AVBL
CENTRAL LI SOUND 0230            39      90/  6/  8   N/A           1/22
EASTERN LI SOUND NOT AVBL
ROBBINS REEF     0242            43     360/  2/  3 1013.7
$$


>>>>>>>>>>>>>>>>>>>>>>>>>>>> KEY <<<<<<<<<<<<<<<<<<<<<<<<<<<
>                                                          <
>     SKY/WX - Sky Condition/Present Weather               <
>     TMP    - Temperature in Fahrenheit                   <
>     DP     - Dew Point in Fahrenheit                     <
>     RH     - Relative Humidity in Percent                <
>     WIND   - Direction (from) and Speed in MPH           <
>     PRES   - Mean Sea Level Pressure (inches of Hg)      <
>     WCI    - Wind Chill Index                            <
>     VSB    - VISIBILITY IN MILES                         <
>     HX     - HEAT INDEX                                  <
>     TC     - TEMPERATURE IN CELSIUS                      <
>     VRB    - VARIABLE WIND DIRECTION                     <
>                                                          <
>>>>>>>>>>>>>>>>>>>>>>>>>>>> KEY <<<<<<<<<<<<<<<<<<<<<<<<<<<



USA.gov is the U.S. government's official web portal to all federal, state and local government web resources and services.